Regional Weather Roundup
Issued by NWS

Home | Current Version | Previous Version | Graphics & Text | Print | Product List | Glossary Off
Versions: 1 2 3 4 5 6 7 8 9 10 11 12 13 14 15 16 17 18 19 20 21 22 23 24 25 26 27

000
ASUS45 KTFX 270510
RWRMT
MONTANA REGIONAL WEATHER ROUNDUP
NATIONAL WEATHER SERVICE GREAT FALLS MT
1100 PM MDT THU APR 26 2018

NOTE: "FAIR" INDICATES FEW OR NO CLOUDS BELOW 12000 FEET WITH NO
SIGNIFICANT WEATHER AND/OR OBSTRUCTIONS TO VISIBILITY.

MTZ001>007-043-270600-
WEST OF THE DIVIDE

CITY           SKY/WX    TMP DP  RH WIND       PRES   REMARKS
KALISPELL      FAIR      46  35  65 N3        30.05S
MISSOULA       FAIR      53  35  50 CALM      30.05S
BUTTE          FAIR      45  30  55 SE6       30.16S
MULLAN PASS    FAIR      55  25  31 SE7       30.14F
ANACONDA         N/A     48  28  46 S6        30.14S
DEER LODGE       N/A     48  34  57 W3        30.14F
HAMILTON         N/A     54  30  40 MISG      30.07S
$$

MTZ008-052>055-270600-
SOUTHWEST MONTANA

CITY           SKY/WX    TMP DP  RH WIND       PRES   REMARKS
BOZEMAN        FAIR      48  31  51 S13       30.13S
DILLON         FAIR      47  33  58 SW6       30.13R
ENNIS          CLEAR     45  27  49 SE9       30.19S
W YELLOWSTONE  FAIR      30  21  69 CALM      30.21S
THREE FORKS      N/A     44  36  73 CALM      30.10S
$$

MTZ009-010-012-014-046-048-049-054-270600-
EAST SLOPES AND CENTRAL MONTANA

CITY           SKY/WX    TMP DP  RH WIND       PRES   REMARKS
CUT BANK       FAIR      53  26  35 E8        30.09S
GREAT FALLS    FAIR      54  28  36 E9        30.08S
MALMSTROM AFB  FAIR      49  30  47 SE7       30.08S
HELENA         FAIR      52  37  56 W12       30.09S
AUGUSTA        FAIR      49  27  42 NE5       30.10S
BOWMANS CRNR   FAIR      52  24  33 W9        30.08S
CHOTEAU          N/A     48  30  49 N7        30.10F
FAIRFIELD      FAIR      55  26  32 E3        30.08S
POWER          FAIR      54  24  31 E8        30.07F
RAYNESFORD     FAIR      50  28  43 CALM      30.11S
ULM            FAIR      52  31  44 CALM      30.07F
WHITE SULPHUR    N/A     39  32  75 NW7       30.13F
$$

MTZ011-013-016-021-045-047-050-051-270600-
NORTH CENTRAL MONTANA

CITY           SKY/WX    TMP DP  RH WIND       PRES   REMARKS
HAVRE          FAIR      48  39  71 SE3       30.06R
LEWISTOWN      FAIR      45  30  55 SE7       30.12S
N BAR RANCH    FAIR      45  27  49 NW5       30.16S
CHINOOK          N/A     52  39  62 CALM      30.06R
GEYSER         FAIR      44  33  65 W6        30.11S
GRASS RANGE    FAIR      44  32  62 W5        30.08F
STANFORD       FAIR      47  30  51 W5        30.12F
$$

MTZ017>020-022>027-061-062-270600-
NORTHEAST MONTANA

CITY           SKY/WX    TMP DP  RH WIND       PRES   REMARKS
GLASGOW        FAIR      57  33  40 NW6       30.02S
GLENDIVE       FAIR      46  34  62 W9        30.03F
JORDAN           N/A     47  36  65 NW9       30.05S
MALTA          CLEAR     52  37  58 CALM      30.03R
SIDNEY         FAIR      56  31  38 W14       29.97F
WOLF POINT     FAIR      51  32  48 SW3       30.01R
PLENTYWOOD       N/A     54  30  40 N14       29.99R
POPLAR           N/A     54  32  43 CALM      30.01R
$$

MTZ028>42-056>058-270600-
SOUTHCENTRAL AND SOUTHEAST MONTANA

CITY           SKY/WX    TMP DP  RH WIND       PRES   REMARKS
BAKER          FAIR      45  36  70 W10       30.06F
BILLINGS       FAIR      57  32  38 SW14      30.10S
LIVINGSTON     FAIR      44  30  57 CALM      30.14S
MILES CITY     FAIR      49  39  68 W8        30.06F
BIG TIMBER     CLEAR     48  32  53 W6        30.15R
FORSYTH          N/A     54  34  47 S5        30.08S
HARLOWTON      FAIR      47  33  58 W8        30.13S
LAUREL           N/A     52  32  46 SW12      30.11S
$$

REGIONAL REPORTS...DAKOTAS

CITY           SKY/WX    TMP DP  RH WIND       PRES   REMARKS
WILLISTON      FAIR      51  33  50 NW12      29.96S
MINOT          FAIR      53  31  42 NW13      29.90R
DICKINSON      FAIR      49  30  48 W12       29.97F
BEACH          MOCLDY    48  30  49 W10       30.05F
CROSBY         FAIR      46  30  53 NW8       29.98R
TIOGA          FAIR      52  30  43 N12       29.97R
WATFORD CITY   FAIR      52  32  46 W12       29.95S
BISMARCK       FAIR      48  32  53 W7        29.92F
GRAND FORKS    CLOUDY    50  38  63 SW10      29.76F
FARGO          FAIR      50  33  52 S16       29.80F
BUFFALO SD       N/A     46  32  58 W8        30.01F
RAPID CITY     FAIR      46  30  53 W7        30.10F
$$

REGIONAL REPORTS...WYOMING/IDAHO/WASHINGTON

CITY           SKY/WX    TMP DP  RH WIND       PRES   REMARKS
GILLETTE       FAIR      38  29  70 SW5       30.14F
SHERIDAN       FAIR      41  33  73 CALM      30.14S
BUFFALO WY     FAIR      50  31  48 W7        30.17F
CODY           FAIR      47  28  47 CALM      30.19S
YELLOWSTONE LA   N/A     27  20  75 CALM      30.30S
IDAHO FALLS    FAIR      48  28  46 CALM      30.12F
SALMON         FAIR      49  30  48 CALM      30.07R
BOISE          FAIR      62  37  39 SE8       29.96S
SPOKANE        FAIR      61  34  36 CALM      29.98F
$$

REGIONAL REPORTS...ALBERTA

CITY           SKY/WX    TMP DP  RH WIND       PRES   REMARKS
CALGARY        CLEAR     54  34  47 W2        30.09F
CARDSTON         N/A     46  30  53 NW1         N/A
EDMONTON       CLEAR     48  27  43 E3        30.06F
FORT MCMURRAY  CLEAR     43  23  45 SE8       30.09S
HIGH LEVEL     CLEAR     46  30  53 S2        29.98F
LETHBRIDGE     CLEAR     46  32  57 SE5       30.07S
LLOYDMINSTER   CLEAR     46  23  39 NE5       30.10R
MEDICINE HAT   CLEAR     52  34  50 CALM      30.06R
MILK RIVER       N/A     48  32  53 E9          N/A
PEACE RIVER    PTCLDY    46  34  61 CALM      30.03S
PINCHER CREEK  CLEAR     46  28  49 SW5       30.09S
WATERTON GATE    N/A     48  27  43 S12         N/A
$$

REGIONAL REPORTS...SASKATCHEWAN

CITY           SKY/WX    TMP DP  RH WIND       PRES   REMARKS
CORONACH         N/A     50  30  46 N12         N/A
CYPRESS HILLS    N/A     50  23  34 NE2         N/A
ESTEVAN        CLEAR     48  28  46 N13       29.96R
MOOSE JAW        N/A     46  23  39 N3          N/A
PRINCE ALBERT  CLEAR     46  27  46 NE14      30.10R
REGINA         CLEAR     46  19  34 N10       30.02R
ROCKGLEN         N/A     52  28  40 N10         N/A
SASKATOON      PTCLDY    43  23  45 N9        30.09R
SWIFT CURRENT  CLEAR     48  28  46 E8        30.06R
VAL MARIE        N/A     41  30  65 N7          N/A
$$




USA.gov is the U.S. government's official web portal to all federal, state and local government web resources and services.